Terug naar catalogus

THORAD AGENA D DEB

ActiefSSO
NORAD 4640·DEBRIS·🇺🇸 United States

Gelanceerd Apr 8, 1970 vanaf Vandenberg Space Force Base

Loading…

Volgende Passages (komende 24 uur)

TLE

VersSource: Space-Track

Epoch: Sep 14, 2026, 13:58 UTC

1  4640U 70025Y   26257.58195898  .00000188  00000-0  41247-3 0  9991
2  4640 100.0464  17.1878 0121387  97.4480 329.0696 13.39254732744051

Volg THORAD AGENA D DEB in realtime met AllMySat

Download on the App Store